This is the latest recevied weather packets stored in our database for station/object KB1JL-13. If no packets are shown the sender has not sent any weather packets the latest 1 day(s).
| Time | Temp. | Humidity | Pressure | Rain* | Wind** | Luminosity | Snow |
|---|---|---|---|---|---|---|---|
| 1778010251 | 21.11° C | 65% | 1020.2 hPa | 0 mm | 1.34 m/s, 190° | 498 W/m² | - |
| 1778009946 | 21.67° C | 65% | 1020.5 hPa | 0 mm | 2.68 m/s, 199° | 508 W/m² | - |
| 1778009644 | 21.67° C | 63% | 1020.5 hPa | 0 mm | 6.26 m/s, 208° | 507 W/m² | - |
| 1778009341 | 21.67° C | 64% | 1020.5 hPa | 0 mm | 0.45 m/s, 202° | 481 W/m² | - |
| 1778009039 | 22.22° C | 63% | 1020.5 hPa | 0 mm | 3.13 m/s, 178° | 567 W/m² | - |
| 1778008737 | 22.22° C | 63% | 1020.5 hPa | 0 mm | 3.58 m/s, 187° | 574 W/m² | - |
| 1778008435 | 22.22° C | 64% | 1020.9 hPa | 0 mm | 0.89 m/s, 186° | 580 W/m² | - |
| 1778008132 | 22.22° C | 64% | 1020.9 hPa | 0 mm | 2.24 m/s, 196° | 571 W/m² | - |
| 1778007827 | 22.22° C | 63% | 1020.9 hPa | 0 mm | 2.24 m/s, 230° | 569 W/m² | - |
| 1778007523 | 22.22° C | 63% | 1020.9 hPa | 0 mm | 0.89 m/s, 196° | 531 W/m² | - |
| 1778007220 | 22.78° C | 61% | 1020.9 hPa | 0 mm | 4.02 m/s, 169° | 540 W/m² | - |
| 1778006916 | 22.22° C | 63% | 1020.9 hPa | 0 mm | 2.24 m/s, 177° | 508 W/m² | - |
| 1778006613 | 22.22° C | 62% | 1020.9 hPa | 0 mm | 4.92 m/s, 189° | 514 W/m² | - |
| 1778006310 | 22.22° C | 63% | 1020.9 hPa | 0 mm | 3.13 m/s, 187° | 547 W/m² | - |
| 1778006007 | 22.78° C | 62% | 1021.2 hPa | 0 mm | 4.02 m/s, 196° | 580 W/m² | - |
| 1778005703 | 22.78° C | 60% | 1020.9 hPa | 0 mm | 0 m/s | 620 W/m² | - |
| 1778005400 | 22.78° C | 61% | 1020.9 hPa | 0 mm | 4.02 m/s, 184° | 635 W/m² | - |
| 1778005097 | 23.33° C | 62% | 1020.5 hPa | 0 mm | 0.45 m/s, 205° | 625 W/m² | - |
| 1778004794 | 22.78° C | 63% | 1020.9 hPa | 0 mm | 0 m/s | 587 W/m² | - |
| 1778004491 | 23.33° C | 61% | 1020.9 hPa | 0 mm | 0 m/s | 600 W/m² | - |
| 1778004187 | 22.78° C | 61% | 1020.9 hPa | 0 mm | 0 m/s | 622 W/m² | - |
| 1778003884 | 22.78° C | 65% | 1021.2 hPa | 0 mm | 0 m/s | 618 W/m² | - |
| 1778003580 | 22.78° C | 62% | 1021.2 hPa | 0 mm | 0.45 m/s, 190° | 615 W/m² | - |
| 1778003277 | 22.78° C | 60% | 1021.2 hPa | 0 mm | 0.89 m/s, 199° | 639 W/m² | - |
| 1778002974 | 22.78° C | 61% | 1021.6 hPa | 0 mm | 0 m/s | 641 W/m² | - |
* Rain latest hour (hover to see other rain measurements)
** Current wind speed in m/s (hover to see current wind gust speed)